Terug naar catalogus

FENGYUN 1C DEB

ActiefPO
NORAD 31905·DEBRIS·🇨🇳 China

Gelanceerd May 10, 1999 vanaf Taiyuan Satellite Launch Center

Loading…

Volgende Passages (komende 24 uur)

TLE

VersSource: Space-Track

Epoch: Sep 14, 2026, 10:50 UTC

1 31905U 99025CLG 26257.45141018  .00001456  00000-0  43747-3 0  9993
2 31905  99.1734 255.0878 0193860  12.5593 348.0321 14.34124083  5534

Volg FENGYUN 1C DEB in realtime met AllMySat

Download on the App Store